#timestamp,LO_Frequency,Hit 
1504684815.9,286046992.1,N
1504684835.7,286046992.3,N
1504684855.5,286046995.3,N
1504684875.4,286046996.3,N
1504684895.2,286046992.1,P
1504684915.0,286046997.3,N
1504684915.9,286046997.3,N
1504684935.8,286046999.4,N
1504684955.6,286046998.1,N
1504684975.4,286046994.9,N
1504684995.3,286046997.4,N
1504685015.1,286046996.5,N
1504685016.0,286046996.5,N
1504685035.8,286046996.6,N
1504685055.6,286046996.8,N
1504685075.5,286046996.8,N
1504685095.3,286046997.3,N
1504685115.1,286046999.8,N
1504685135.9,286047004.4,N
1504685155.7,286047001.9,N
1504685175.5,286047003.3,N
1504685195.4,286047004.2,N
1504685215.2,286046999.7,N
1504685235.0,286046999.8,N
1504685235.9,286046999.8,N
1504685255.8,286047002.1,N
1504685275.6,286046999.9,N
1504685295.4,286046998.8,N
1504685315.2,286046997.0,N
1504685335.1,286047002.4,N
1504685336.0,286047002.4,N
1504685355.8,286046998.5,N
1504685375.6,286046996.5,N
1504685395.5,286046997.0,N
1504685415.3,286046998.6,N
1504685435.1,286046997.1,N
1504685455.9,286046999.2,N
1504685475.7,286046999.1,N
1504685495.5,286046999.0,N
1504685515.4,286046994.9,N
1504685535.2,286046998.4,N
1504685555.0,286047000.4,N
1504685555.9,286047000.4,N
1504685575.8,286046996.6,N
1504685595.6,286047000.0,N
1504685615.4,286047002.4,N
1504685635.3,286047002.6,N
1504685655.1,286047000.2,N
1504685656.0,286047000.2,N
1504685675.8,286046997.0,N
1504685695.7,286046993.3,P
1504685715.5,286046996.7,N
1504685735.3,286046999.1,N
1504685755.2,286046999.2,N
1504685775.9,286046997.5,N
1504685795.7,286046997.9,N
1504685815.5,286046997.1,N
1504685835.4,286046994.9,N
1504685855.2,286046997.6,N
1504685875.0,286046996.8,N
1504685875.9,286046996.8,N
1504685895.8,286046995.3,N
1504685915.6,286046997.4,N
1504685935.4,286046997.8,N
1504685955.3,286046994.9,P
1504685975.1,286046997.0,N
1504685995.8,286047000.8,N
1504686015.7,286046998.8,N
1504686035.5,286046998.8,N
1504686055.3,286046999.8,N
1504686075.2,286047000.2,N
1504686095.9,286047003.1,N
1504686115.7,286047002.8,N
1504686135.6,286047002.4,N
1504686155.4,286047001.2,N
1504686175.2,286047000.0,N
1504686195.1,286047000.0,N
1504686196.0,286047000.0,N
1504686215.8,286047000.0,N
1504686235.6,286047001.0,N
1504686255.4,286047000.2,N
1504686275.3,286047000.8,N
1504686295.1,286047001.2,N
1504686315.8,286046999.7,N
1504686335.7,286047002.4,N
1504686355.5,286046999.3,N
1504686375.3,286046998.9,N
1504686395.2,286046997.7,N
1504686415.9,286046999.4,N
1504686435.7,286047000.6,N
1504686455.6,286046999.2,N
1504686475.4,286046998.9,N
1504686495.2,286046999.8,N
1504686515.0,286047000.1,N
1504686516.0,286047000.1,N
1504686535.8,286047000.4,N
1504686555.6,286047000.8,N
1504686575.4,286046998.9,N
1504686595.3,286046994.9,P
1504686615.1,286046997.6,N
1504686635.9,286046996.9,N
1504686655.7,286046998.1,N
1504686675.5,286046999.4,N
1504686695.3,286047001.1,N
1504686715.2,286046998.6,N
1504686735.0,286046996.9,N
1504686735.9,286046996.9,N
1504686755.7,286047000.6,N
1504686775.6,286047000.3,N
1504686795.4,286047000.8,N
1504686815.2,286046997.0,N
1504686835.1,286046997.5,N
1504686836.0,286046997.5,N
1504686855.8,286046993.4,P
1504686875.6,286046997.2,N
1504686895.5,286046998.7,N
1504686915.3,286047001.2,N
1504686935.1,286046997.2,N
1504686955.9,286046997.6,N
1504686975.7,286046995.9,N
1504686995.5,286046994.0,N
1504687015.4,286046994.9,N
1504687035.2,286046995.9,N
1504687055.0,286046994.5,N
1504687055.9,286046994.5,N
1504687075.7,286046997.5,N
1504687095.6,286046994.9,N
1504687115.4,286046999.2,N
1504687135.2,286046999.6,N
1504687155.1,286046998.8,N
1504687156.0,286046998.8,N
1504687175.8,286046994.9,N
1504687195.6,286046998.6,N
1504687215.5,286047000.3,N
1504687235.3,286047000.1,N
1504687255.1,286047000.8,N
1504687275.9,286046998.4,N
1504687295.7,286047000.7,N
1504687315.5,286046998.8,N
1504687335.3,286046998.6,N
1504687355.2,286047000.6,N
1504687375.0,286046996.8,N
1504687375.9,286046996.8,N
1504687395.7,286046996.2,N
1504687415.6,286046997.4,N
1504687435.4,286047001.0,N
1504687455.2,286046997.2,N
1504687475.1,286046998.0,N
1504687476.0,286046998.0,N
1504687495.8,286046995.2,N
1504687515.6,286046995.6,N
1504687535.5,286046997.7,N
1504687555.3,286046993.9,P
1504687575.1,286046995.2,N
1504687595.9,286046995.6,N
1504687615.7,286046998.0,N
1504687635.5,286046997.9,N
1504687655.4,286046995.7,N
1504687675.2,286046994.9,P
1504687695.0,286047000.7,N
1504687695.9,286047000.7,N
1504687715.8,286046998.9,N
1504687735.6,286047000.2,N
1504687755.4,286047004.3,N
1504687775.3,286047004.3,N
1504687795.1,286047002.3,N
1504687796.0,286047002.3,N
1504687815.8,286046999.9,N
1504687835.7,286046998.1,N
1504687855.5,286046999.9,N
1504687875.3,286046999.8,N
1504687895.1,286046998.9,N
1504687915.9,286046997.2,N
1504687935.7,286046998.8,N
1504687955.5,286047000.9,N
1504687975.4,286047002.0,N
1504687995.2,286047001.6,N
1504688015.0,286047001.0,N
1504688015.9,286047001.0,N
1504688035.8,286046997.5,N
1504688055.6,286046995.6,N
1504688075.4,286046997.8,N
1504688095.3,286046999.0,N
1504688115.1,286046999.0,N
1504688116.0,286046999.0,N
1504688135.8,286046999.6,N
1504688155.7,286046995.4,N
1504688175.5,286046995.6,N
1504688195.3,286046996.3,N
1504688215.1,286046993.4,N
1504688235.9,286046994.2,N
1504688255.7,286046995.3,N
1504688275.5,286046998.8,N
1504688295.4,286046999.6,N
1504688315.2,286046995.0,N
1504688335.0,286046994.9,N
1504688335.9,286046994.9,N
1504688355.8,286046993.4,N
1504688375.6,286046994.2,N
1504688395.4,286046994.1,N
